Location: Home
(42.5358°N, 72.7383°W)
Time: 17:18:45
(UTC-05:00)

A-11 Canister half - Pass Details

Date: 30 November 2021
Orbit: 1516 x 1684 km, 47.2° (Epoch: 18 January)

Event Time Altitude Azimuth Distance (km) Brightness Sun altitude
Rises 15:57:40 0° 291° (WNW) 4,937 12.2 2.5°
Reaches altitude 10° 16:01:57 10° 277° (W) 3,949 12.1 1.9°
Maximum altitude 16:08:35 20° 235° (SW) 3,205 12.4 0.8°
Drops below altitude 10° 16:15:11 10° 193° (SSW) 3,908 11.8 -0.2°
Sets 16:19:27 0° 177° (S) 4,871 12.0 -0.9°
